#timestamp,LO_Frequency,Hit,StdDev 
1683709215.6,286047002.8,N
1683709235.5,286047002.4,N
1683709255.3,286047000.1,N
1683709275.1,286046999.9,N
1683709295.9,286047000.4,N
1683709315.7,286047000.0,N
1683709335.6,286047000.3,N
1683709355.4,286047000.3,N
1683709375.2,286047000.6,N
1683709395.1,286046999.9,N
1683709396.0,286046999.9,N
1683709415.8,286047000.4,N
1683709435.7,286047000.3,N
1683709455.5,286047000.4,N
1683709475.3,286047000.7,N
1683709495.2,286047000.6,N
1683709515.0,286046999.9,N
1683709515.9,286046999.9,N
1683709535.7,286046999.9,N
1683709555.6,286046999.8,N
1683709575.4,286047000.1,N
1683709595.3,286047000.5,N
1683709615.1,286047000.5,N
1683709616.0,286047000.5,N
1683709635.8,286047000.2,N
1683709655.7,286046999.9,N
1683709675.5,286047000.6,N
1683709695.3,286046999.9,N
1683709715.2,286046999.7,N
1683709735.0,286047002.8,Y
1683709735.9,286047002.8,P
1683709755.8,286047000.8,N
1683709775.6,286046999.1,N
1683709795.5,286046996.5,N
1683709815.3,286046999.6,N
1683709835.1,286046997.2,N
1683709855.9,286046995.0,N
1683709875.7,286046995.5,N
1683709895.5,286046997.2,N
1683709915.4,286046999.2,N
1683709935.2,286046997.0,N
1683709955.1,286046996.7,N
1683709956.0,286046996.7,N
1683709975.8,286046996.9,N
1683709995.6,286046996.5,N
1683710015.5,286046999.2,N
1683710035.3,286046996.5,N
1683710055.1,286046996.8,N
1683710075.9,286046996.9,N
1683710095.7,286046995.3,N
1683710115.6,286046998.0,N
1683710135.4,286046995.0,N
1683710155.2,286046996.4,N
1683710175.1,286046995.9,N
1683710176.0,286046995.9,N
1683710195.8,286046995.7,N
1683710215.7,286046994.9,N
1683710235.5,286046995.8,N
1683710255.3,286046997.5,N
1683710275.2,286046997.6,N
1683710295.0,286046997.9,N
1683710295.9,286046997.9,N
1683710315.8,286046996.0,Y
1683710335.6,286046996.5,P
1683710355.4,286046999.1,P
1683710375.3,286046996.5,P
1683710395.1,286046996.7,Y
1683710415.9,286047000.2,P
1683710435.7,286047000.1,N
1683710455.5,286047000.9,N
1683710475.4,286046998.2,N
1683710495.2,286046998.4,N
1683710515.0,286046998.3,N
1683710515.9,286046998.3,N
1683710535.8,286046998.8,N
1683710555.6,286046996.5,Y
1683710575.5,286046999.1,P
1683710595.3,286046997.4,P
1683710615.1,286046998.7,N
1683710635.9,286046999.0,N
1683710655.7,286046999.3,N
1683710675.6,286046998.5,N
1683710695.4,286046999.0,N
1683710715.2,286046996.7,Y
1683710735.1,286046999.0,P
1683710736.0,286046999.0,P
1683710755.8,286046998.6,P
1683710775.6,286046998.4,Y
1683710795.5,286047000.5,P
1683710815.3,286047001.2,N
1683710835.2,286046998.1,N
1683710855.9,286047001.1,N
1683710875.7,286046998.5,N
1683710895.6,286046998.5,N
1683710915.4,286047001.2,N
1683710935.2,286047000.7,N
1683710955.1,286047000.7,N
1683710956.0,286047000.7,N
1683710975.8,286046998.5,N
1683710995.7,286046999.0,N
1683711015.5,286046998.8,N
1683711035.3,286047001.2,N
1683711055.2,286046998.2,N
1683711075.0,286046998.5,N
1683711075.9,286046998.5,N
1683711095.8,286047001.2,N
1683711115.6,286047001.2,N
1683711135.4,286047000.0,N
1683711155.3,286047000.4,N
1683711175.1,286046998.4,N
1683711195.9,286046996.9,N
1683711215.7,286046999.5,N
1683711235.5,286046999.6,N
1683711255.4,286046997.9,N
1683711275.2,286046995.4,Y
1683711295.1,286046997.8,P
1683711296.0,286046997.8,N
1683711315.8,286046997.5,P
1683711335.6,286046997.0,Y
1683711355.5,286047001.0,P
1683711375.3,286047000.0,N
1683711395.1,286046999.9,N
1683711415.9,286047000.3,N
1683711435.7,286046999.9,N
1683711455.6,286047000.9,N
1683711475.4,286046998.1,N
1683711495.2,286047000.9,N
1683711515.1,286047001.1,N
1683711516.0,286047001.1,N
1683711535.8,286047000.0,N
1683711555.7,286047002.7,N
1683711575.5,286047000.8,N
1683711595.3,286047001.0,N
1683711615.2,286047001.0,N
1683711635.0,286046998.8,N
1683711635.9,286046998.8,N
1683711655.8,286046999.0,N
1683711675.6,286047001.0,N
1683711695.4,286046998.1,N
1683711715.3,286047000.8,N
1683711735.1,286046998.3,N
1683711755.8,286046999.5,N
1683711775.7,286046998.4,N
1683711795.5,286046998.6,N
1683711815.4,286046999.0,N
1683711835.2,286046999.1,N
1683711855.0,286046999.1,N
1683711855.9,286046999.1,N
1683711875.8,286046998.1,N
1683711895.6,286046998.8,N
1683711915.5,286046998.9,N
1683711935.3,286046998.3,N
1683711955.1,286046999.0,N
1683711975.9,286046999.5,N
1683711995.7,286046996.5,N
1683712015.6,286046996.5,N
1683712035.4,286046998.5,N
1683712055.2,286046996.9,N
1683712075.1,286046999.2,N
1683712076.0,286046999.2,N
1683712095.8,286046999.1,N
1683712115.7,286046999.4,N
1683712135.5,286046996.5,Y
1683712155.3,286046998.7,P
1683712175.2,286047001.2,P
1683712195.0,286047001.2,N
1683712195.9,286047001.2,N
1683712215.7,286046998.7,N
1683712235.6,286046998.1,N
1683712255.4,286047001.2,N
1683712275.3,286047001.0,N
1683712295.1,286047000.8,N
1683712296.0,286047000.8,N
1683712315.8,286047001.2,N
1683712335.7,286047000.5,N
1683712355.5,286047000.5,N
1683712375.3,286047000.1,N
1683712395.2,286047002.6,N
1683712415.0,286047000.2,N
1683712415.9,286047000.2,N
1683712435.8,286047002.8,N
1683712455.6,286047000.1,N
1683712475.4,286047000.0,N
1683712495.3,286047001.2,N
1683712515.1,286047000.4,N
1683712535.8,286047000.5,N
1683712555.7,286047000.6,N
1683712575.5,286047000.0,N
1683712595.4,286047000.1,N
1683712615.2,286047001.6,N
1683712635.0,286047001.5,N
1683712635.9,286047001.5,N
1683712655.8,286047001.9,N
1683712675.6,286047001.7,N
1683712695.4,286047001.4,N
1683712715.3,286047001.9,N
1683712735.1,286047002.2,N
1683712755.9,286046999.7,N
1683712775.7,286047002.2,N
1683712795.5,286047002.0,N
